Weather History for Rickenbacker, OH

Change the Weather History Date:

Tuesday, February 18, 2014

  Actual Average Record
Temperature  
Mean Temperature 42 °F -  
Max Temperature 46 °F 41 °F 64 °F (2011)
Min Temperature 37 °F 26 °F 12 °F (2006)
Degree Days  
Heating Degree Days 24    
Moisture  
Dew Point 26 °F    
Average Humidity 58    
Maximum Humidity 73    
Minimum Humidity 39    
Precipitation  
Precipitation 0.00 in - - ()
Sea Level Pressure  
Sea Level Pressure 29.96 in    
Wind  
Wind Speed 16 mph (SSW)    
Max Wind Speed 25 mph    
Max Gust Speed 38 mph    
Visibility 10 miles    
Events      
Averages and records for this station are not official NWS values.
T = Trace of Precipitation, MM = Missing Value Source: NWS Daily Summary

Daily Weather History Graph

Daily Weather History Graph

Search for Another Location

Airport:

Trip Planner

Search our weather history database for the weather conditions in past years. The results will help you decide how hot, cold, wet, or windy it might be!

Date:

Astronomy

Feb. 18, 2014 Rise Set
Actual Time 7:20 AM EST 6:11 PM EST
Civil Twilight 6:52 AM EST 6:38 PM EST
Nautical Twilight 6:21 AM EST 7:10 PM EST
Astronomical Twilight 5:50 AM EST 7:41 PM EST
Moon 10:03 PM EST (2/18) 8:52 AM EST (2/18)
Length of Visible Light 11h 46m
Length of Day
10h 51m
Waning Gibbous, 87% of the Moon is Illuminated
Feb 18
Waning Gibbous
Feb 22
Last Quarter
Mar 1
New
Mar 8
First Quarter
Mar 16
Full

Hourly Weather History & Observations

Time (EST) Temp. Windchill Dew Point Humidity Pressure Visibility Wind Dir Wind Speed Gust Speed Precip Events Conditions
12:15 AM 37.4 °F 25.9 °F 28.8 °F 71% 29.83 in 10.0 mi WSW 25.3 mph 38.0 mph N/A   Overcast
12:35 AM 37.4 °F 25.9 °F 28.9 °F 71% 29.84 in 10.0 mi SW 25.3 mph 35.7 mph N/A   Overcast
12:55 AM 37.0 °F 25.9 °F 29.1 °F 73% 29.84 in 10.0 mi SW 23.0 mph 34.5 mph N/A   Overcast
1:15 AM 37.2 °F 27.3 °F 29.1 °F 73% 29.84 in 10.0 mi SW 18.4 mph 29.9 mph N/A   Overcast
1:35 AM 37.4 °F 26.9 °F 29.1 °F 72% 29.84 in 10.0 mi SW 20.7 mph 26.5 mph N/A   Overcast
1:55 AM 37.4 °F 26.9 °F 29.1 °F 72% 29.84 in 10.0 mi SW 20.7 mph 29.9 mph N/A   Overcast
2:15 AM 37.4 °F 26.4 °F 28.8 °F 71% 29.84 in 10.0 mi SW 23.0 mph 29.9 mph N/A   Overcast
2:35 AM 37.8 °F 27.1 °F 28.9 °F 71% 29.84 in 10.0 mi SW 21.9 mph 34.5 mph N/A   Overcast
2:55 AM 37.9 °F 27.3 °F 28.9 °F 70% 29.85 in 10.0 mi SW 21.9 mph 32.2 mph N/A   Overcast
3:15 AM 38.1 °F 27.1 °F 28.9 °F 70% 29.86 in 10.0 mi SW 24.2 mph 33.4 mph N/A   Overcast
3:35 AM 37.9 °F 27.3 °F 28.9 °F 70% 29.87 in 10.0 mi SW 21.9 mph 28.8 mph N/A   Overcast
3:55 AM 37.8 °F 26.8 °F 29.1 °F 71% 29.88 in 10.0 mi WSW 23.0 mph 28.8 mph N/A   Overcast
4:15 AM 37.6 °F 26.9 °F 29.1 °F 72% 29.88 in 10.0 mi WSW 21.9 mph 29.9 mph N/A   Overcast
4:35 AM 37.8 °F 26.3 °F 28.9 °F 71% 29.90 in 10.0 mi WSW 25.3 mph 34.5 mph N/A   Overcast
4:55 AM 38.1 °F 27.6 °F 28.6 °F 69% 29.91 in 10.0 mi WSW 21.9 mph 32.2 mph N/A   Overcast
5:15 AM 38.1 °F 28.1 °F 28.8 °F 69% 29.93 in 10.0 mi WSW 19.6 mph 26.5 mph N/A   Overcast
5:35 AM 37.9 °F 27.6 °F 28.6 °F 69% 29.94 in 10.0 mi WSW 20.7 mph 25.3 mph N/A   Overcast
5:55 AM 38.1 °F 29.1 °F 28.4 °F 68% 29.96 in 10.0 mi WSW 16.1 mph 25.3 mph N/A   Overcast
6:15 AM 37.8 °F 28.3 °F 28.4 °F 69% 29.97 in 10.0 mi WSW 17.3 mph 23.0 mph N/A   Overcast
6:35 AM 37.6 °F 28.8 °F 28.4 °F 69% 29.98 in 10.0 mi WSW 15.0 mph 23.0 mph N/A   Overcast
6:55 AM 37.6 °F 28.4 °F 28.4 °F 69% 30.00 in 10.0 mi WSW 16.1 mph 21.9 mph N/A   Overcast
7:15 AM 37.6 °F 29.6 °F 28.4 °F 69% 30.01 in 10.0 mi WSW 12.7 mph 19.6 mph N/A   Overcast
7:35 AM 37.2 °F 28.7 °F 28.4 °F 70% 30.03 in 10.0 mi WSW 13.8 mph - N/A   Overcast
7:55 AM 37.2 °F 27.9 °F 28.0 °F 69% 30.03 in 10.0 mi West 16.1 mph - N/A   Overcast
8:15 AM 37.2 °F 29.1 °F 28.0 °F 69% 30.04 in 10.0 mi WSW 12.7 mph 19.6 mph N/A   Overcast
8:35 AM 37.0 °F 28.5 °F 28.0 °F 70% 30.05 in 10.0 mi WSW 13.8 mph 19.6 mph N/A   Overcast
8:55 AM 37.0 °F 27.4 °F 27.9 °F 69% 30.06 in 10.0 mi WSW 17.3 mph - N/A   Overcast
9:15 AM 37.2 °F 27.9 °F 27.0 °F 66% 30.07 in 10.0 mi West 16.1 mph 25.3 mph N/A   Overcast
9:35 AM 37.4 °F 30.8 °F 27.3 °F 67% 30.08 in 10.0 mi WSW 9.2 mph 18.4 mph N/A   Overcast
9:55 AM 37.8 °F 29.0 °F 27.5 °F 67% 30.09 in 10.0 mi West 15.0 mph 23.0 mph N/A   Overcast
10:15 AM 37.9 °F 30.0 °F 27.5 °F 66% 30.09 in 10.0 mi WSW 12.7 mph - N/A   Overcast
10:35 AM 38.3 °F 29.7 °F 27.7 °F 66% 30.09 in 10.0 mi WSW 15.0 mph - N/A   Mostly Cloudy
10:55 AM 38.7 °F 30.5 °F 27.5 °F 64% 30.10 in 10.0 mi WSW 13.8 mph - N/A   Scattered Clouds
11:15 AM 39.0 °F 31.4 °F 27.5 °F 63% 30.11 in 10.0 mi WSW 12.7 mph - N/A   Clear
11:35 AM 39.4 °F 32.7 °F 27.7 °F 63% 30.11 in 10.0 mi WSW 10.4 mph - N/A   Clear
11:55 AM 39.9 °F 32.9 °F 27.7 °F 62% 30.11 in 10.0 mi WSW 11.5 mph - N/A   Clear
12:15 PM 40.5 °F 34.1 °F 27.9 °F 61% 30.11 in 10.0 mi SW 10.4 mph - N/A   Clear
12:35 PM 41.2 °F 35.5 °F 27.7 °F 59% 30.10 in 10.0 mi SW 9.2 mph - N/A   Clear
12:55 PM 42.3 °F 36.8 °F 28.0 °F 57% 30.09 in 10.0 mi SW 9.2 mph - N/A   Clear
1:15 PM 42.6 °F 37.2 °F 28.0 °F 56% 30.08 in 10.0 mi SW 9.2 mph - N/A   Clear
1:35 PM 43.3 °F 39.2 °F 27.7 °F 54% 30.06 in 10.0 mi SSW 6.9 mph - N/A   Clear
1:55 PM 44.1 °F 39.5 °F 27.5 °F 52% 30.06 in 10.0 mi SSW 8.1 mph - N/A   Clear
2:15 PM 44.2 °F 41.0 °F 27.3 °F 51% 30.05 in 10.0 mi SSW 5.8 mph - N/A   Clear
2:35 PM 44.8 °F 41.6 °F 27.3 °F 50% 30.04 in 10.0 mi SSW 5.8 mph - N/A   Clear
2:55 PM 45.3 °F 43.0 °F 26.4 °F 48% 30.04 in 10.0 mi South 4.6 mph - N/A   Clear
3:15 PM 45.5 °F 42.5 °F 26.1 °F 47% 30.03 in 10.0 mi South 5.8 mph - N/A   Clear
3:35 PM 45.9 °F 42.9 °F 25.5 °F 45% 30.02 in 10.0 mi SSE 5.8 mph - N/A   Clear
3:55 PM 46.2 °F 43.3 °F 25.2 °F 44% 30.00 in 10.0 mi South 5.8 mph - N/A   Clear
4:15 PM 46.4 °F 42.9 °F 24.8 °F 43% 29.99 in 10.0 mi SSE 6.9 mph - N/A   Clear
4:35 PM 45.9 °F 42.9 °F 24.3 °F 43% 29.98 in 10.0 mi SSE 5.8 mph - N/A   Clear
4:55 PM 45.3 °F 43.0 °F 24.3 °F 44% 29.98 in 10.0 mi South 4.6 mph - N/A   Clear
5:15 PM 45.7 °F 42.7 °F 23.4 °F 41% 29.97 in 10.0 mi SSE 5.8 mph - N/A   Clear
5:35 PM 44.8 °F 41.6 °F 23.4 °F 43% 29.96 in 10.0 mi SSE 5.8 mph - N/A   Clear
5:55 PM 44.4 °F 42.0 °F 22.5 °F 42% 29.95 in 10.0 mi SE 4.6 mph - N/A   Clear
6:15 PM 45.0 °F 41.2 °F 21.0 °F 39% 29.94 in 10.0 mi SE 6.9 mph - N/A   Clear
6:35 PM 44.6 °F 41.4 °F 20.7 °F 39% 29.94 in 10.0 mi SE 5.8 mph - N/A   Clear
6:55 PM 43.7 °F 41.1 °F 20.7 °F 40% 29.94 in 10.0 mi SE 4.6 mph - N/A   Clear
7:15 PM 43.9 °F 40.5 °F 20.1 °F 39% 29.93 in 10.0 mi ESE 5.8 mph - N/A   Clear
7:35 PM 42.4 °F 39.6 °F 20.8 °F 42% 29.93 in 10.0 mi ESE 4.6 mph - N/A   Clear
7:55 PM 42.6 °F 40.9 °F 20.1 °F 41% 29.92 in 10.0 mi SE 3.5 mph - N/A   Clear
8:15 PM 41.9 °F 40.0 °F 20.5 °F 42% 29.91 in 10.0 mi ESE 3.5 mph - N/A   Clear
8:35 PM 41.0 °F 38.0 °F 20.7 °F 44% 29.90 in 10.0 mi SE 4.6 mph - N/A   Clear
8:55 PM 41.2 °F 38.2 °F 20.1 °F 43% 29.90 in 10.0 mi SSE 4.6 mph - N/A   Clear
9:15 PM 42.1 °F 37.7 °F 19.8 °F 41% 29.88 in 10.0 mi SE 6.9 mph - N/A   Clear
9:35 PM 42.1 °F 37.7 °F 20.3 °F 42% 29.88 in 10.0 mi SE 6.9 mph - N/A   Clear
9:55 PM 40.6 °F 36.0 °F 21.0 °F 46% 29.87 in 10.0 mi SSE 6.9 mph - N/A   Clear
10:15 PM 38.8 °F 34.6 °F 21.6 °F 50% 29.86 in 10.0 mi SSE 5.8 mph - N/A   Clear
10:35 PM 38.8 °F 34.6 °F 21.4 °F 50% 29.85 in 10.0 mi SSE 5.8 mph - N/A   Clear
10:55 PM 39.0 °F 35.7 °F 21.4 °F 49% 29.84 in 10.0 mi South 4.6 mph - N/A   Clear
11:15 PM 39.4 °F 34.5 °F 21.2 °F 48% 29.83 in 10.0 mi South 6.9 mph - N/A   Clear
11:35 PM 40.5 °F 34.1 °F 21.6 °F 47% 29.81 in 10.0 mi SSE 10.4 mph - N/A   Scattered Clouds
11:55 PM 42.6 °F 36.8 °F 22.8 °F 46% 29.80 in 10.0 mi South 10.4 mph - N/A   Scattered Clouds